Karos, South Africa

1:44 AM SAST on January 22, 2017 (GMT +0200)
Upington

Weather History for FAUP - December, 2012

Change the Weather History Date:

Monday, December 3, 2012

  Actual Average Record
Temperature  
Mean Temperature 71 °F -  
Max Temperature 84 °F 92 °F 108 °F (2016)
Min Temperature 58 °F 63 °F 51 °F (1996)
Cooling Degree Days 6    
Growing Degree Days 21 (Base 50)    
Moisture  
Dew Point 52 °F    
Average Humidity 54    
Maximum Humidity 94    
Minimum Humidity 17    
Precipitation  
Precipitation 0.00 in 0.02 in - ()
Sea Level Pressure  
Sea Level Pressure 29.99 in    
Wind  
Wind Speed 3 mph ()    
Max Wind Speed 9 mph    
Max Gust Speed -    
Visibility 6.2 miles    
Events      
Averages and records for this station are not official NWS values.
T = Trace of Precipitation, MM = Missing Value Source: Averaged Metar Reports

Daily Weather History Graph

Daily Weather History Graph

Search for Another Location

Airport or City:

Trip Planner

Search our weather history database for the weather conditions in past years. The results will help you decide how hot, cold, wet, or windy it might be!

Date:

Astronomy

Dec. 03, 2012 Rise Set
Actual Time 5:29 AM SAST 7:20 PM SAST
Civil Twilight 5:03 AM SAST 7:46 PM SAST
Nautical Twilight 4:31 AM SAST 8:18 PM SAST
Astronomical Twilight 3:57 AM SAST 8:52 PM SAST
Moon 10:54 PM SAST (12/3) 9:26 AM SAST (12/3)
Length of Visible Light 14h 43m
Length of Day
13h 50m
Waning Gibbous, 80% of the Moon is Illuminated
Dec 3
Waning Gibbous
Dec 6
Last Quarter
Dec 13
New
Dec 20
First Quarter
Dec 28
Full

Hourly Weather History & Observations

Time (SAST) Temp. Dew Point Humidity Pressure Visibility Wind Dir Wind Speed Gust Speed Precip Events Conditions
12:00 AM 60.8 °F 57.2 °F 88% 30.01 in - SSW 3.5 mph - N/A   Unknown
1:00 AM 60.8 °F 57.2 °F 88% 30.01 in - West 1.2 mph - N/A   Clear
2:00 AM 60 °F 57 °F 88%  in 25 mi NW 2.3 mph - -  
2:00 AM 59.0 °F 57.2 °F 94% 30.01 in - NW 2.3 mph - N/A   Clear
3:00 AM 59.0 °F 55.4 °F 88% 30.01 in - Calm Calm - N/A   Clear
4:00 AM 59.0 °F 57.2 °F 94% 30.01 in - Calm Calm - N/A   Clear
5:00 AM 57.2 °F 55.4 °F 94% 30.01 in - NNE 1.2 mph - N/A   Clear
6:00 AM 59.0 °F 55.4 °F 88% 30.01 in - Calm Calm - N/A   Clear
6:35 AM 62.6 °F 59.0 °F 88% 30.04 in - SW 1.2 mph - N/A   Clear
7:00 AM 64.4 °F 59.0 °F 83% 30.04 in - Calm Calm - N/A   Clear
8:00 AM 68 °F 54 °F 52%  in 25 mi South 2.3 mph - -  
8:00 AM 68.0 °F 53.6 °F 60% 30.04 in - South 2.3 mph - N/A   Clear
9:00 AM 69.8 °F 55.4 °F 60% 30.04 in - SSE 2.3 mph - N/A   Clear
10:00 AM 71.6 °F 55.4 °F 57% 30.04 in 6.2 mi SSE 3.5 mph - N/A   Partly Cloudy
11:00 AM 75 °F 53 °F 36%  in 25 mi SSE 3.5 mph - -   Scattered Clouds
11:00 AM 73.4 °F 51.8 °F 47% 30.04 in 6.2 mi SSE 2.3 mph - N/A   Partly Cloudy
12:00 PM 75.2 °F 50.0 °F 41% 30.01 in 6.2 mi SSW 4.6 mph - N/A   Partly Cloudy
1:00 PM 78.8 °F 48.2 °F 34% 29.98 in 6.2 mi West 3.5 mph - N/A   Partly Cloudy
2:00 PM 81 °F 46 °F 19%  in 25 mi WSW 8.1 mph - -   Scattered Clouds
2:00 PM 80.6 °F 46.4 °F 30% 29.98 in 6.2 mi WSW 6.9 mph - N/A   Partly Cloudy
2:47 PM 84.2 °F 46.4 °F 27% 29.95 in 6.2 mi SW 5.8 mph - N/A   Partly Cloudy
3:00 PM 82.4 °F 44.6 °F 26% 29.95 in 6.2 mi SW 9.2 mph - N/A   Partly Cloudy
4:00 PM 80.6 °F 46.4 °F 30% 29.95 in 6.2 mi South 4.6 mph - N/A   Partly Cloudy
5:00 PM 85 °F 47 °F 17%  in 25 mi South 6.9 mph - -   Scattered Clouds
5:00 PM 84.2 °F 46.4 °F 27% 29.95 in 6.2 mi South 6.9 mph - N/A   Partly Cloudy
6:00 PM 82.4 °F 42.8 °F 25% 29.92 in 6.2 mi South 9.2 mph - N/A   Partly Cloudy
7:00 PM 80.6 °F 42.8 °F 26% 29.95 in - South 8.1 mph - N/A   Clear
8:00 PM 74 °F 49 °F 30%  in 25 mi South 4.6 mph - -   Scattered Clouds
8:00 PM 73.4 °F 48.2 °F 41% 29.95 in - South 3.5 mph - N/A   Clear
9:00 PM 71.6 °F 50.0 °F 46% 29.95 in - SE 4.6 mph - N/A   Unknown
10:00 PM 69.8 °F 51.8 °F 53% 29.98 in - ENE 3.5 mph - N/A   Unknown
11:00 PM 69 °F 54 °F 48%  in - ENE 4.6 mph - -  
11:00 PM 68.0 °F 53.6 °F 60% 29.95 in - ENE 4.6 mph - N/A   Unknown